| time (UTC) | temp F | wind direction | speed MPH | gust MPH | rain 1hr in | rain 24hr in | rain mn in | humidity % | barometer mb |
| 20260509094904 | 71 | 244 | 0.0 | 0.0 | 0.00 | 0.00 | 0.00 | 30 | 1006.9 |
| 20260509093904 | 72 | 244 | 0.0 | 0.0 | 0.00 | 0.00 | 0.00 | 29 | 1006.9 |
| 20260509093404 | 92 | 244 | 0.0 | 0.0 | 0.00 | 0.00 | 0.00 | 19 | 1005.0 |
| 20260509065903 | 92 | 242 | 0.0 | 0.0 | 0.00 | 0.00 | 0.00 | 19 | 1005.0 |
| 20260509064903 | 92 | 244 | 0.0 | 0.0 | 0.00 | 0.00 | 0.00 | 19 | 1005.0 |
| 20260509063903 | 92 | 244 | 0.0 | 0.0 | 0.00 | 0.00 | 0.00 | 19 | 1005.0 |
| 20260509063404 | 92 | 244 | 0.0 | 0.0 | 0.00 | 0.00 | 0.00 | 19 | 1005.0 |
| 20260509062904 | 92 | 246 | 0.0 | 0.0 | 0.00 | 0.00 | 0.00 | 19 | 1005.0 |
| 20260509061906 | 92 | 244 | 0.0 | 0.0 | 0.00 | 0.00 | 0.00 | 19 | 1005.0 |
| 20260509061405 | 92 | 245 | 0.0 | 0.0 | 0.00 | 0.00 | 0.00 | 19 | 1005.0 |
| 20260509060905 | 92 | 245 | 0.0 | 0.0 | 0.00 | 0.00 | 0.00 | 19 | 1005.0 |
| 20260509060405 | 92 | 241 | 0.0 | 0.0 | 0.00 | 0.00 | 0.00 | 19 | 1005.0 |
| 20260509055905 | 92 | 242 | 0.0 | 0.0 | 0.00 | 0.00 | 0.00 | 19 | 1005.0 |
| 20260509055404 | 92 | 244 | 0.0 | 0.0 | 0.00 | 0.00 | 0.00 | 19 | 1005.0 |
| 20260509054905 | 92 | 245 | 0.0 | 0.0 | 0.00 | 0.00 | 0.00 | 19 | 1005.0 |
| 20260509054405 | 92 | 242 | 0.0 | 0.0 | 0.00 | 0.00 | 0.00 | 19 | 1005.0 |
| 20260509053405 | 92 | 246 | 0.0 | 0.0 | 0.00 | 0.00 | 0.00 | 19 | 1005.0 |
| 20260509052404 | 92 | 242 | 0.0 | 0.0 | 0.00 | 0.00 | 0.00 | 19 | 1005.0 |
| 20260509051905 | 92 | 244 | 0.0 | 0.0 | 0.00 | 0.00 | 0.00 | 19 | 1005.0 |
| 20260509051406 | 92 | 245 | 0.0 | 0.0 | 0.00 | 0.00 | 0.00 | 19 | 1005.0 |
| 20260509050905 | 92 | 244 | 0.0 | 0.0 | 0.00 | 0.00 | 0.00 | 19 | 1005.0 |
| 20260509045405 | 92 | 245 | 0.0 | 0.0 | 0.00 | 0.00 | 0.00 | 19 | 1005.0 |
| 20260509044904 | 92 | 242 | 0.0 | 0.0 | 0.00 | 0.00 | 0.00 | 19 | 1005.0 |
| 20260509044405 | 92 | 245 | 0.0 | 0.0 | 0.00 | 0.00 | 0.00 | 19 | 1005.0 |
| 20260509043905 | 92 | 243 | 0.0 | 0.0 | 0.00 | 0.00 | 0.00 | 19 | 1005.0 |
| 20260509043404 | 92 | 245 | 0.0 | 0.0 | 0.00 | 0.00 | 0.00 | 19 | 1005.0 |
| 20260509042905 | 92 | 243 | 0.0 | 0.0 | 0.00 | 0.00 | 0.00 | 19 | 1005.0 |
| 20260509042405 | 92 | 245 | 0.0 | 0.0 | 0.00 | 0.00 | 0.00 | 19 | 1005.0 |
| 20260509041405 | 92 | 242 | 0.0 | 0.0 | 0.00 | 0.00 | 0.00 | 19 | 1005.0 |
| 20260509040904 | 92 | 242 | 0.0 | 0.0 | 0.00 | 0.00 | 0.00 | 19 | 1005.0 |
| 20260509040405 | 92 | 244 | 0.0 | 0.0 | 0.00 | 0.00 | 0.00 | 19 | 1005.0 |
| 20260509035905 | 92 | 245 | 0.0 | 0.0 | 0.00 | 0.00 | 0.00 | 19 | 1005.0 |
| 20260509035405 | 92 | 245 | 0.0 | 0.0 | 0.00 | 0.00 | 0.00 | 19 | 1005.0 |
| 20260509034405 | 92 | 245 | 0.0 | 0.0 | 0.00 | 0.00 | 0.00 | 19 | 1005.0 |
| 20260509032905 | 92 | 244 | 0.0 | 0.0 | 0.00 | 0.00 | 0.00 | 19 | 1005.0 |
| 20260509032405 | 92 | 243 | 0.0 | 0.0 | 0.00 | 0.00 | 0.00 | 19 | 1005.0 |
| 20260509031405 | 92 | 245 | 0.0 | 0.0 | 0.00 | 0.00 | 0.00 | 19 | 1005.0 |
| 20260509030905 | 92 | 243 | 0.0 | 0.0 | 0.00 | 0.00 | 0.00 | 19 | 1005.0 |
| 20260509030405 | 92 | 244 | 0.0 | 0.0 | 0.00 | 0.00 | 0.00 | 19 | 1005.0 |
| 20260509024405 | 94 | 245 | 0.0 | 0.0 | 0.00 | 0.00 | 0.00 | 18 | 1004.6 |
| 20260509023905 | 94 | 244 | 0.0 | 0.0 | 0.00 | 0.00 | 0.00 | 18 | 1004.6 |
| 20260509023405 | 94 | 244 | 0.0 | 0.0 | 0.00 | 0.00 | 0.00 | 17 | 1004.5 |
| 20260509022405 | 94 | 244 | 0.0 | 0.0 | 0.00 | 0.00 | 0.00 | 16 | 1004.5 |
| 20260509021905 | 95 | 244 | 0.0 | 0.0 | 0.00 | 0.00 | 0.00 | 17 | 1004.4 |
| 20260509021404 | 95 | 244 | 0.0 | 0.0 | 0.00 | 0.00 | 0.00 | 17 | 1004.3 |
| 20260509020904 | 95 | 244 | 0.0 | 0.0 | 0.00 | 0.00 | 0.00 | 17 | 1004.3 |
| 20260509020405 | 95 | 242 | 0.0 | 0.0 | 0.00 | 0.00 | 0.00 | 17 | 1004.5 |
| 20260509015906 | 95 | 244 | 0.0 | 1.0 | 0.00 | 0.00 | 0.00 | 17 | 1004.5 |
| 20260509015404 | 96 | 244 | 0.0 | 1.0 | 0.00 | 0.00 | 0.00 | 16 | 1004.5 |
| 20260509014906 | 96 | 258 | 0.0 | 3.0 | 0.00 | 0.00 | 0.00 | 16 | 1004.5 |
| 20260509013405 | 97 | 257 | 0.0 | 2.0 | 0.00 | 0.00 | 0.00 | 16 | 1004.3 |
| 20260509012904 | 97 | 218 | 0.0 | 1.0 | 0.00 | 0.00 | 0.00 | 16 | 1004.3 |
| 20260509012405 | 97 | 219 | 0.0 | 0.0 | 0.00 | 0.00 | 0.00 | 16 | 1004.3 |
| 20260509011905 | 97 | 219 | 0.0 | 3.0 | 0.00 | 0.00 | 0.00 | 16 | 1004.4 |
| 20260509010905 | 97 | 221 | 0.0 | 5.0 | 0.00 | 0.00 | 0.00 | 16 | 1004.4 |
| 20260509010404 | 98 | 250 | 0.0 | 5.0 | 0.00 | 0.00 | 0.00 | 16 | 1004.4 |
| 20260509005906 | 98 | 258 | 0.0 | 0.0 | 0.00 | 0.00 | 0.00 | 16 | 1004.6 |
| 20260509005404 | 98 | 258 | 0.0 | 2.0 | 0.00 | 0.00 | 0.00 | 16 | 1004.7 |
| 20260509004905 | 98 | 258 | 1.0 | 6.0 | 0.00 | 0.00 | 0.00 | 16 | 1004.7 |
| 20260509004404 | 98 | 242 | 0.0 | 0.0 | 0.00 | 0.00 | 0.00 | 16 | 1004.7 |
| 20260509003905 | 98 | 241 | 0.0 | 3.0 | 0.00 | 0.00 | 0.00 | 16 | 1004.7 |
| 20260509003405 | 98 | 257 | 0.0 | 1.0 | 0.00 | 0.00 | 0.00 | 16 | 1004.7 |
| 20260509002404 | 98 | 254 | 0.0 | 1.0 | 0.00 | 0.00 | 0.00 | 16 | 1004.8 |
| 20260509001906 | 98 | 255 | 0.0 | 2.0 | 0.00 | 0.00 | 0.00 | 16 | 1004.8 |
| 20260509001405 | 98 | 263 | 0.0 | 9.0 | 0.00 | 0.00 | 0.00 | 16 | 1004.9 |
| 20260509000905 | 98 | 231 | 1.0 | 3.0 | 0.00 | 0.00 | 0.00 | 16 | 1005.0 |
| 20260509000405 | 98 | 242 | 0.0 | 0.0 | 0.00 | 0.00 | 0.00 | 16 | 1005.1 |
| 20260508235905 | 98 | 243 | 0.0 | 2.0 | 0.00 | 0.00 | 0.00 | 16 | 1004.9 |
| 20260508234905 | 98 | 283 | 1.0 | 7.0 | 0.00 | 0.00 | 0.00 | 16 | 1005.0 |
| 20260508234405 | 98 | 286 | 1.0 | 3.0 | 0.00 | 0.00 | 0.00 | 16 | 1005.0 |
| 20260508233905 | 98 | 268 | 0.0 | 3.0 | 0.00 | 0.00 | 0.00 | 16 | 1005.2 |
| 20260508233405 | 98 | 281 | 0.0 | 3.0 | 0.00 | 0.00 | 0.00 | 16 | 1005.3 |
| 20260508232905 | 98 | 297 | 0.0 | 5.0 | 0.00 | 0.00 | 0.00 | 17 | 1005.3 |
| 20260508232405 | 98 | 267 | 1.0 | 6.0 | 0.00 | 0.00 | 0.00 | 16 | 1005.4 |
| 20260508231905 | 98 | 278 | 1.0 | 5.0 | 0.00 | 0.00 | 0.00 | 17 | 1005.4 |
| 20260508230904 | 98 | 239 | 1.0 | 5.0 | 0.00 | 0.00 | 0.00 | 17 | 1005.4 |
| 20260508230405 | 97 | 246 | 0.0 | 1.0 | 0.00 | 0.00 | 0.00 | 17 | 1005.5 |
| 20260508225904 | 97 | 254 | 0.0 | 5.0 | 0.00 | 0.00 | 0.00 | 17 | 1005.6 |
| 20260508225405 | 97 | 281 | 0.0 | 9.0 | 0.00 | 0.00 | 0.00 | 18 | 1005.6 |
| 20260508224905 | 97 | 247 | 1.0 | 3.0 | 0.00 | 0.00 | 0.00 | 18 | 1005.8 |
| 20260508224405 | 97 | 261 | 1.0 | 5.0 | 0.00 | 0.00 | 0.00 | 18 | 1005.9 |
| 20260508223905 | 96 | 244 | 0.0 | 3.0 | 0.00 | 0.00 | 0.00 | 18 | 1006.0 |
| 20260508223406 | 96 | 243 | 0.0 | 3.0 | 0.00 | 0.00 | 0.00 | 19 | 1006.0 |
| 20260508222405 | 96 | 254 | 0.0 | 5.0 | 0.00 | 0.00 | 0.00 | 19 | 1006.3 |
| 20260508221905 | 96 | 244 | 0.0 | 3.0 | 0.00 | 0.00 | 0.00 | 19 | 1006.4 |
| 20260508221405 | 96 | 290 | 0.0 | 3.0 | 0.00 | 0.00 | 0.00 | 19 | 1006.5 |
| 20260508220905 | 96 | 227 | 0.0 | 3.0 | 0.00 | 0.00 | 0.00 | 19 | 1006.7 |
| 20260508220404 | 96 | 300 | 0.0 | 1.0 | 0.00 | 0.00 | 0.00 | 19 | 1006.8 |
| 20260508215905 | 96 | 291 | 0.0 | 3.0 | 0.00 | 0.00 | 0.00 | 19 | 1006.9 |
| 20260508215404 | 95 | 267 | 0.0 | 6.0 | 0.00 | 0.00 | 0.00 | 19 | 1007.0 |
| 20260508214404 | 95 | 244 | 0.0 | 2.0 | 0.00 | 0.00 | 0.00 | 19 | 1007.2 |
| 20260508212904 | 94 | 264 | 0.0 | 1.0 | 0.00 | 0.00 | 0.00 | 19 | 1007.5 |
| 20260508212405 | 94 | 245 | 0.0 | 0.0 | 0.00 | 0.00 | 0.00 | 19 | 1007.6 |
| 20260508211905 | 94 | 245 | 0.0 | 1.0 | 0.00 | 0.00 | 0.00 | 19 | 1007.7 |
| 20260508211405 | 94 | 277 | 0.0 | 2.0 | 0.00 | 0.00 | 0.00 | 19 | 1007.7 |
| 20260508210904 | 94 | 274 | 0.0 | 10.0 | 0.00 | 0.00 | 0.00 | 19 | 1007.9 |
| 20260508210404 | 94 | 275 | 0.0 | 3.0 | 0.00 | 0.00 | 0.00 | 19 | 1007.9 |
| 20260508205906 | 93 | 277 | 0.0 | 1.0 | 0.00 | 0.00 | 0.00 | 19 | 1008.0 |
| 20260508204405 | 93 | 289 | 0.0 | 2.0 | 0.00 | 0.00 | 0.00 | 20 | 1008.2 |
| 20260508203905 | 93 | 257 | 0.0 | 1.0 | 0.00 | 0.00 | 0.00 | 20 | 1008.3 |
| 20260508203405 | 93 | 257 | 0.0 | 2.0 | 0.00 | 0.00 | 0.00 | 19 | 1008.4 |
| 20260508202904 | 93 | 257 | 0.0 | 0.0 | 0.00 | 0.00 | 0.00 | 20 | 1008.4 |
| 20260508202406 | 92 | 257 | 0.0 | 1.0 | 0.00 | 0.00 | 0.00 | 20 | 1008.6 |
| 20260508201905 | 92 | 257 | 0.0 | 0.0 | 0.00 | 0.00 | 0.00 | 20 | 1008.6 |
| 20260508201405 | 92 | 257 | 0.0 | 2.0 | 0.00 | 0.00 | 0.00 | 20 | 1008.7 |
| 20260508200905 | 92 | 257 | 0.0 | 1.0 | 0.00 | 0.00 | 0.00 | 20 | 1008.8 |
| 20260508200404 | 92 | 257 | 0.0 | 1.0 | 0.00 | 0.00 | 0.00 | 20 | 1008.8 |
| 20260508195905 | 91 | 258 | 0.0 | 0.0 | 0.00 | 0.00 | 0.00 | 20 | 1008.8 |
| 20260508194905 | 91 | 256 | 0.0 | 2.0 | 0.00 | 0.00 | 0.00 | 20 | 1009.0 |
| 20260508193904 | 90 | 256 | 0.0 | 0.0 | 0.00 | 0.00 | 0.00 | 20 | 1009.1 |
| 20260508192905 | 90 | 256 | 0.0 | 0.0 | 0.00 | 0.00 | 0.00 | 21 | 1009.3 |
| 20260508192405 | 90 | 256 | 0.0 | 0.0 | 0.00 | 0.00 | 0.00 | 20 | 1009.4 |
| 20260508191905 | 91 | 256 | 0.0 | 1.0 | 0.00 | 0.00 | 0.00 | 21 | 1009.4 |
| 20260508190904 | 90 | 256 | 0.0 | 0.0 | 0.00 | 0.00 | 0.00 | 21 | 1009.6 |
| 20260508185905 | 89 | 256 | 0.0 | 1.0 | 0.00 | 0.00 | 0.00 | 22 | 1009.6 |
| 20260508185404 | 89 | 256 | 0.0 | 0.0 | 0.00 | 0.00 | 0.00 | 22 | 1009.7 |
| 20260508184904 | 89 | 256 | 0.0 | 0.0 | 0.00 | 0.00 | 0.00 | 21 | 1009.7 |
| 20260508184404 | 89 | 217 | 0.0 | 1.0 | 0.00 | 0.00 | 0.00 | 21 | 1009.8 |
| 20260508183904 | 89 | 205 | 0.0 | 0.0 | 0.00 | 0.00 | 0.00 | 21 | 1009.9 |
| 20260508183405 | 89 | 204 | 0.0 | 0.0 | 0.00 | 0.00 | 0.00 | 21 | 1010.0 |
| 20260508182904 | 89 | 205 | 0.0 | 0.0 | 0.00 | 0.00 | 0.00 | 22 | 1010.1 |
| 20260508181404 | 89 | 205 | 0.0 | 0.0 | 0.00 | 0.00 | 0.00 | 22 | 1010.2 |
| 20260508180904 | 88 | 205 | 0.0 | 0.0 | 0.00 | 0.00 | 0.00 | 22 | 1010.3 |
| 20260508175405 | 87 | 205 | 0.0 | 0.0 | 0.00 | 0.00 | 0.00 | 22 | 1010.3 |
| 20260508174404 | 86 | 205 | 0.0 | 3.0 | 0.00 | 0.00 | 0.00 | 23 | 1010.4 |
| 20260508173905 | 86 | 205 | 0.0 | 0.0 | 0.00 | 0.00 | 0.00 | 22 | 1010.5 |
| 20260508173404 | 86 | 205 | 0.0 | 3.0 | 0.00 | 0.00 | 0.00 | 23 | 1010.5 |
| 20260508172906 | 85 | 205 | 0.0 | 3.0 | 0.00 | 0.00 | 0.00 | 23 | 1010.6 |
| 20260508172404 | 85 | 205 | 0.0 | 2.0 | 0.00 | 0.00 | 0.00 | 23 | 1010.6 |
| 20260508171904 | 85 | 205 | 0.0 | 0.0 | 0.00 | 0.00 | 0.00 | 23 | 1010.7 |
| 20260508171404 | 86 | 205 | 0.0 | 3.0 | 0.00 | 0.00 | 0.00 | 23 | 1010.9 |
| 20260508170904 | 85 | 205 | 0.0 | 0.0 | 0.00 | 0.00 | 0.00 | 24 | 1010.8 |
| 20260508165904 | 85 | 205 | 0.0 | 3.0 | 0.00 | 0.00 | 0.00 | 24 | 1010.9 |
| 20260508165404 | 85 | 205 | 0.0 | 2.0 | 0.00 | 0.00 | 0.00 | 24 | 1010.9 |
| 20260508164904 | 84 | 205 | 1.0 | 7.0 | 0.00 | 0.00 | 0.00 | 25 | 1010.9 |
| 20260508164405 | 84 | 205 | 0.0 | 2.0 | 0.00 | 0.00 | 0.00 | 25 | 1010.9 |
| 20260508163904 | 83 | 205 | 0.0 | 2.0 | 0.00 | 0.00 | 0.00 | 25 | 1011.0 |
| 20260508162904 | 83 | 205 | 0.0 | 2.0 | 0.00 | 0.00 | 0.00 | 26 | 1011.1 |
| 20260508162405 | 83 | 205 | 0.0 | 2.0 | 0.00 | 0.00 | 0.00 | 26 | 1011.1 |
| 20260508161905 | 83 | 205 | 0.0 | 1.0 | 0.00 | 0.00 | 0.00 | 26 | 1011.1 |
| 20260508161404 | 82 | 205 | 0.0 | 2.0 | 0.00 | 0.00 | 0.00 | 26 | 1011.0 |
| 20260508160904 | 81 | 205 | 0.0 | 0.0 | 0.00 | 0.00 | 0.00 | 27 | 1011.2 |
| 20260508160404 | 81 | 205 | 0.0 | 0.0 | 0.00 | 0.00 | 0.00 | 27 | 1011.2 |
| 20260508155905 | 81 | 205 | 1.0 | 3.0 | 0.00 | 0.00 | 0.00 | 27 | 1010.9 |
| 20260508154905 | 80 | 205 | 0.0 | 1.0 | 0.00 | 0.00 | 0.00 | 27 | 1011.0 |
| 20260508154404 | 80 | 205 | 0.0 | 3.0 | 0.00 | 0.00 | 0.00 | 27 | 1011.0 |
| 20260508153904 | 80 | 205 | 0.0 | 3.0 | 0.00 | 0.00 | 0.00 | 28 | 1011.0 |
| 20260508153404 | 80 | 205 | 0.0 | 3.0 | 0.00 | 0.00 | 0.00 | 28 | 1010.9 |
| 20260508152904 | 80 | 205 | 0.0 | 3.0 | 0.00 | 0.00 | 0.00 | 28 | 1010.9 |
| 20260508152404 | 79 | 205 | 0.0 | 3.0 | 0.00 | 0.00 | 0.00 | 28 | 1011.0 |
| 20260508151905 | 79 | 205 | 1.0 | 5.0 | 0.00 | 0.00 | 0.00 | 28 | 1011.0 |
| 20260508151404 | 79 | 205 | 1.0 | 6.0 | 0.00 | 0.00 | 0.00 | 28 | 1011.1 |
| 20260508150904 | 78 | 205 | 1.0 | 12.0 | 0.00 | 0.00 | 0.00 | 28 | 1011.0 |
| 20260508145904 | 78 | 256 | 0.0 | 2.0 | 0.00 | 0.00 | 0.00 | 29 | 1010.9 |
| 20260508145404 | 78 | 257 | 0.0 | 6.0 | 0.00 | 0.00 | 0.00 | 29 | 1010.9 |
| 20260508144904 | 77 | 257 | 0.0 | 0.0 | 0.00 | 0.00 | 0.00 | 30 | 1010.9 |
| 20260508144405 | 77 | 257 | 0.0 | 0.0 | 0.00 | 0.00 | 0.00 | 30 | 1010.9 |
| 20260508143404 | 76 | 257 | 0.0 | 0.0 | 0.00 | 0.00 | 0.00 | 31 | 1011.0 |
| 20260508142904 | 75 | 257 | 0.0 | 0.0 | 0.00 | 0.00 | 0.00 | 32 | 1011.1 |
| 20260508141404 | 72 | 257 | 0.0 | 1.0 | 0.00 | 0.00 | 0.00 | 34 | 1011.2 |
| 20260508140904 | 71 | 252 | 0.0 | 0.0 | 0.00 | 0.00 | 0.00 | 34 | 1011.2 |
| 20260508140404 | 71 | 252 | 0.0 | 0.0 | 0.00 | 0.00 | 0.00 | 34 | 1011.1 |
| 20260508135904 | 70 | 252 | 0.0 | 0.0 | 0.00 | 0.00 | 0.00 | 34 | 1011.1 |
| 20260508134905 | 69 | 252 | 0.0 | 0.0 | 0.00 | 0.00 | 0.00 | 35 | 1011.0 |
| 20260508134404 | 69 | 251 | 0.0 | 0.0 | 0.00 | 0.00 | 0.00 | 35 | 1011.0 |
| 20260508133904 | 68 | 252 | 0.0 | 0.0 | 0.00 | 0.00 | 0.00 | 35 | 1011.1 |
| 20260508133411 | 68 | 251 | 0.0 | 0.0 | 0.00 | 0.00 | 0.00 | 35 | 1011.0 |
| 20260508132405 | 67 | 251 | 0.0 | 0.0 | 0.00 | 0.00 | 0.00 | 35 | 1011.0 |
| 20260508131905 | 67 | 251 | 0.0 | 0.0 | 0.00 | 0.00 | 0.00 | 35 | 1010.9 |
| 20260508131405 | 66 | 251 | 0.0 | 0.0 | 0.00 | 0.00 | 0.00 | 35 | 1010.8 |
| 20260508130904 | 66 | 251 | 0.0 | 0.0 | 0.00 | 0.00 | 0.00 | 36 | 1010.8 |
| 20260508130405 | 66 | 251 | 0.0 | 0.0 | 0.00 | 0.00 | 0.00 | 36 | 1010.6 |
| 20260508125906 | 66 | 251 | 0.0 | 0.0 | 0.00 | 0.00 | 0.00 | 36 | 1010.5 |
| 20260508125404 | 66 | 251 | 0.0 | 0.0 | 0.00 | 0.00 | 0.00 | 36 | 1010.4 |
| 20260508124907 | 66 | 250 | 0.0 | 0.0 | 0.00 | 0.00 | 0.00 | 36 | 1010.3 |
| 20260508124405 | 66 | 250 | 0.0 | 0.0 | 0.00 | 0.00 | 0.00 | 36 | 1010.3 |
| 20260508123905 | 66 | 250 | 0.0 | 0.0 | 0.00 | 0.00 | 0.00 | 37 | 1010.1 |
| 20260508123405 | 66 | 250 | 0.0 | 0.0 | 0.00 | 0.00 | 0.00 | 37 | 1010.1 |
| 20260508122905 | 67 | 250 | 0.0 | 0.0 | 0.00 | 0.00 | 0.00 | 36 | 1009.9 |
| 20260508122405 | 67 | 250 | 0.0 | 0.0 | 0.00 | 0.00 | 0.00 | 36 | 1009.9 |
| 20260508121905 | 67 | 249 | 0.0 | 0.0 | 0.00 | 0.00 | 0.00 | 35 | 1009.8 |
| 20260508121405 | 68 | 249 | 0.0 | 0.0 | 0.00 | 0.00 | 0.00 | 35 | 1009.8 |
| 20260508120905 | 68 | 250 | 0.0 | 0.0 | 0.00 | 0.00 | 0.00 | 35 | 1009.7 |
| 20260508120405 | 69 | 250 | 0.0 | 0.0 | 0.00 | 0.00 | 0.00 | 35 | 1009.6 |
| 20260508115905 | 69 | 250 | 0.0 | 0.0 | 0.00 | 0.00 | 0.00 | 34 | 1009.5 |
| 20260508115405 | 69 | 250 | 0.0 | 0.0 | 0.00 | 0.00 | 0.00 | 34 | 1009.4 |
| 20260508114904 | 70 | 250 | 0.0 | 0.0 | 0.00 | 0.00 | 0.00 | 34 | 1009.4 |
| 20260508114405 | 70 | 250 | 0.0 | 0.0 | 0.00 | 0.00 | 0.00 | 34 | 1009.4 |
| 20260508113906 | 70 | 250 | 0.0 | 0.0 | 0.00 | 0.00 | 0.00 | 34 | 1009.3 |
| 20260508113404 | 70 | 250 | 0.0 | 0.0 | 0.00 | 0.00 | 0.00 | 34 | 1009.3 |
| 20260508112906 | 70 | 250 | 0.0 | 0.0 | 0.00 | 0.00 | 0.00 | 33 | 1009.3 |
| 20260508112405 | 70 | 250 | 0.0 | 0.0 | 0.00 | 0.00 | 0.00 | 33 | 1009.3 |
| 20260508111905 | 70 | 250 | 0.0 | 0.0 | 0.00 | 0.00 | 0.00 | 33 | 1009.3 |
| 20260508111405 | 70 | 250 | 0.0 | 0.0 | 0.00 | 0.00 | 0.00 | 33 | 1009.2 |
| 20260508105904 | 70 | 250 | 0.0 | 1.0 | 0.00 | 0.00 | 0.00 | 32 | 1009.2 |
| 20260508105404 | 70 | 250 | 0.0 | 0.0 | 0.00 | 0.00 | 0.00 | 32 | 1009.1 |
| 20260508104904 | 70 | 250 | 0.0 | 0.0 | 0.00 | 0.00 | 0.00 | 31 | 1009.1 |
| 20260508104404 | 70 | 250 | 0.0 | 0.0 | 0.00 | 0.00 | 0.00 | 31 | 1009.1 |
| 20260508103405 | 70 | 250 | 0.0 | 0.0 | 0.00 | 0.00 | 0.00 | 30 | 1009.1 |
| 20260508102904 | 70 | 250 | 0.0 | 0.0 | 0.00 | 0.00 | 0.00 | 29 | 1009.1 |
| 20260508102405 | 70 | 250 | 0.0 | 0.0 | 0.00 | 0.00 | 0.00 | 29 | 1009.2 |
| 20260508101904 | 70 | 250 | 0.0 | 0.0 | 0.00 | 0.00 | 0.00 | 29 | 1009.1 |
| 20260508101407 | 70 | 250 | 0.0 | 0.0 | 0.00 | 0.00 | 0.00 | 28 | 1009.2 |
| 20260508100404 | 69 | 250 | 0.0 | 0.0 | 0.00 | 0.00 | 0.00 | 28 | 1009.1 |
| 20260508095905 | 69 | 249 | 0.0 | 0.0 | 0.00 | 0.00 | 0.00 | 28 | 1009.2 |
| 20260508095404 | 69 | 250 | 0.0 | 0.0 | 0.00 | 0.00 | 0.00 | 28 | 1009.1 |